Year,Month,Day,Hour,Minute,Value (Times are PST for temperature in C)
2005,09,24,00,00,9.80
2005,09,24,00,01,9.80
2005,09,24,00,02,9.90
2005,09,24,00,03,9.90
2005,09,24,00,04,9.90
2005,09,24,00,05,9.90
2005,09,24,00,06,10.00
2005,09,24,00,07,10.00
2005,09,24,00,08,10.10
2005,09,24,00,09,10.10
2005,09,24,00,10,10.00
2005,09,24,00,11,9.90
2005,09,24,00,12,10.00
2005,09,24,00,13,10.00
2005,09,24,00,14,10.10
2005,09,24,00,15,10.00
2005,09,24,00,16,9.90
2005,09,24,00,17,9.90
2005,09,24,00,18,9.90
2005,09,24,00,19,9.90
2005,09,24,00,20,9.90
2005,09,24,00,21,9.90
2005,09,24,00,22,9.90
2005,09,24,00,23,9.90
2005,09,24,00,24,9.90
2005,09,24,00,25,9.90
2005,09,24,00,26,9.90
2005,09,24,00,27,9.90
2005,09,24,00,28,9.90
2005,09,24,00,29,9.90
2005,09,24,00,30,9.90
2005,09,24,00,31,9.90
2005,09,24,00,32,9.80
2005,09,24,00,33,9.80
2005,09,24,00,34,9.70
2005,09,24,00,35,9.70
2005,09,24,00,36,9.60
2005,09,24,00,37,9.50
2005,09,24,00,38,9.60
2005,09,24,00,39,9.60
2005,09,24,00,40,9.50
2005,09,24,00,41,9.40
2005,09,24,00,42,9.40
2005,09,24,00,43,9.30
2005,09,24,00,44,9.40
2005,09,24,00,45,9.40
2005,09,24,00,46,9.40
2005,09,24,00,47,9.40
2005,09,24,00,48,9.40
2005,09,24,00,49,9.50
2005,09,24,00,50,9.60
2005,09,24,00,51,9.70
2005,09,24,00,52,9.60
2005,09,24,00,53,9.60
2005,09,24,00,54,9.50
2005,09,24,00,55,9.50
2005,09,24,00,56,9.40
2005,09,24,00,57,9.40
2005,09,24,00,58,9.40
2005,09,24,00,59,9.40
2005,09,24,01,00,9.30
2005,09,24,01,01,9.40
2005,09,24,01,02,9.30
2005,09,24,01,03,9.30
2005,09,24,01,04,9.30
2005,09,24,01,05,9.20
2005,09,24,01,06,9.20
2005,09,24,01,07,9.20
2005,09,24,01,08,9.20
2005,09,24,01,09,9.20
2005,09,24,01,10,9.20
2005,09,24,01,11,9.30
2005,09,24,01,12,9.30
2005,09,24,01,13,9.30
2005,09,24,01,14,9.30
2005,09,24,01,15,9.40
2005,09,24,01,16,9.40
2005,09,24,01,17,9.30
2005,09,24,01,18,9.20
2005,09,24,01,19,9.20
2005,09,24,01,20,9.20
2005,09,24,01,21,9.20
2005,09,24,01,22,9.20
2005,09,24,01,23,9.20
2005,09,24,01,24,9.20
2005,09,24,01,25,9.20
2005,09,24,01,26,9.30
2005,09,24,01,27,9.30
2005,09,24,01,28,9.40
2005,09,24,01,29,9.40
2005,09,24,01,30,9.40
2005,09,24,01,31,9.50
2005,09,24,01,32,9.40
2005,09,24,01,33,9.50
2005,09,24,01,34,9.50
2005,09,24,01,35,9.50
2005,09,24,01,36,9.50
2005,09,24,01,37,9.50
2005,09,24,01,38,9.50
2005,09,24,01,39,9.50
2005,09,24,01,40,9.50
2005,09,24,01,41,9.50
2005,09,24,01,42,9.50
2005,09,24,01,43,9.50
2005,09,24,01,44,9.50
2005,09,24,01,45,9.50
2005,09,24,01,46,9.50
2005,09,24,01,47,9.50
2005,09,24,01,48,9.50
2005,09,24,01,49,9.50
2005,09,24,01,50,9.50
2005,09,24,01,51,9.40
2005,09,24,01,52,9.50
2005,09,24,01,53,9.60
2005,09,24,01,54,9.60
2005,09,24,01,55,9.60
2005,09,24,01,56,9.60
2005,09,24,01,57,9.60
2005,09,24,01,58,9.50
2005,09,24,01,59,9.50
2005,09,24,02,00,9.40
2005,09,24,02,01,9.30
2005,09,24,02,02,9.30
2005,09,24,02,03,9.20
2005,09,24,02,04,9.10
2005,09,24,02,05,9.00
2005,09,24,02,06,8.90
2005,09,24,02,07,8.90
2005,09,24,02,08,8.80
2005,09,24,02,09,8.80
2005,09,24,02,10,8.70
2005,09,24,02,11,8.80
2005,09,24,02,12,8.90
2005,09,24,02,13,8.90
2005,09,24,02,14,8.80
2005,09,24,02,15,8.70
2005,09,24,02,16,8.70
2005,09,24,02,17,8.80
2005,09,24,02,18,8.80
2005,09,24,02,19,8.80
2005,09,24,02,20,8.70
2005,09,24,02,21,8.80
2005,09,24,02,22,8.90
2005,09,24,02,23,8.90
2005,09,24,02,24,8.90
2005,09,24,02,25,8.80
2005,09,24,02,26,8.70
2005,09,24,02,27,8.60
2005,09,24,02,28,8.50
2005,09,24,02,29,8.50
2005,09,24,02,30,8.40
2005,09,24,02,31,8.40
2005,09,24,02,32,8.40
2005,09,24,02,33,8.40
2005,09,24,02,34,8.40
2005,09,24,02,35,8.40
2005,09,24,02,36,8.40
2005,09,24,02,37,8.40
2005,09,24,02,38,8.40
2005,09,24,02,39,8.40
2005,09,24,02,40,8.40
2005,09,24,02,41,8.50
2005,09,24,02,42,8.60
2005,09,24,02,43,8.60
2005,09,24,02,44,8.60
2005,09,24,02,45,8.60
2005,09,24,02,46,8.60
2005,09,24,02,47,8.60
2005,09,24,02,48,8.50
2005,09,24,02,49,8.50
2005,09,24,02,50,8.50
2005,09,24,02,51,8.40
2005,09,24,02,52,8.40
2005,09,24,02,53,8.40
2005,09,24,02,54,8.50
2005,09,24,02,55,8.50
2005,09,24,02,56,8.50
2005,09,24,02,57,8.60
2005,09,24,02,58,8.60
2005,09,24,02,59,8.60
2005,09,24,03,00,8.60
2005,09,24,03,01,8.60
2005,09,24,03,02,8.60
2005,09,24,03,03,8.50
2005,09,24,03,04,8.50
2005,09,24,03,05,8.40
2005,09,24,03,06,8.40
2005,09,24,03,07,8.30
2005,09,24,03,08,8.30
2005,09,24,03,09,8.30
2005,09,24,03,10,8.30
2005,09,24,03,11,8.20
2005,09,24,03,12,8.20
2005,09,24,03,13,8.30
2005,09,24,03,14,8.40
2005,09,24,03,15,8.40
2005,09,24,03,16,8.50
2005,09,24,03,17,8.60
2005,09,24,03,18,8.70
2005,09,24,03,19,8.70
2005,09,24,03,20,8.70
2005,09,24,03,21,8.70
2005,09,24,03,22,8.70
2005,09,24,03,23,8.70
2005,09,24,03,24,8.60
2005,09,24,03,25,8.60
2005,09,24,03,26,8.50
2005,09,24,03,27,8.50
2005,09,24,03,28,8.50
2005,09,24,03,29,8.40
2005,09,24,03,30,8.50
2005,09,24,03,31,8.50
2005,09,24,03,32,8.50
2005,09,24,03,33,8.50
2005,09,24,03,34,8.50
2005,09,24,03,35,8.50
2005,09,24,03,36,8.50
2005,09,24,03,37,8.60
2005,09,24,03,38,8.60
2005,09,24,03,39,8.50
2005,09,24,03,40,8.50
2005,09,24,03,41,8.50
2005,09,24,03,42,8.50
2005,09,24,03,43,8.50
2005,09,24,03,44,8.50
2005,09,24,03,45,8.50
2005,09,24,03,46,8.50
2005,09,24,03,47,8.40
2005,09,24,03,48,8.40
2005,09,24,03,49,8.40
2005,09,24,03,50,8.40
2005,09,24,03,51,8.40
2005,09,24,03,52,8.30
2005,09,24,03,53,8.20
2005,09,24,03,54,8.10
2005,09,24,03,55,8.20
2005,09,24,03,56,8.20
2005,09,24,03,57,8.10
2005,09,24,03,58,8.00
2005,09,24,03,59,8.00
2005,09,24,04,00,8.00
2005,09,24,04,01,8.00
2005,09,24,04,02,7.90
2005,09,24,04,03,7.90
2005,09,24,04,04,7.80
2005,09,24,04,05,7.90
2005,09,24,04,06,8.00
2005,09,24,04,07,8.00
2005,09,24,04,08,8.00
2005,09,24,04,09,8.00
2005,09,24,04,10,7.90
2005,09,24,04,11,7.90
2005,09,24,04,12,7.80
2005,09,24,04,13,7.80
2005,09,24,04,14,7.80
2005,09,24,04,15,7.80
2005,09,24,04,16,7.80
2005,09,24,04,17,7.80
2005,09,24,04,18,7.80
2005,09,24,04,19,7.90
2005,09,24,04,20,7.90
2005,09,24,04,21,7.90
2005,09,24,04,22,7.90
2005,09,24,04,23,7.90
2005,09,24,04,24,7.90
2005,09,24,04,25,8.00
2005,09,24,04,26,7.90
2005,09,24,04,27,7.90
2005,09,24,04,28,7.90
2005,09,24,04,29,7.90
2005,09,24,04,30,7.80
2005,09,24,04,31,7.80
2005,09,24,04,32,7.70
2005,09,24,04,33,7.60
2005,09,24,04,34,7.60
2005,09,24,04,35,7.50
2005,09,24,04,36,7.40
2005,09,24,04,37,7.40
2005,09,24,04,38,7.30
2005,09,24,04,39,7.30
2005,09,24,04,40,7.30
2005,09,24,04,41,7.30
2005,09,24,04,42,7.30
2005,09,24,04,43,7.30
2005,09,24,04,44,7.40
2005,09,24,04,45,7.40
2005,09,24,04,46,7.60
2005,09,24,04,47,7.60
2005,09,24,04,48,7.60
2005,09,24,04,49,7.70
2005,09,24,04,50,7.70
2005,09,24,04,51,7.60
2005,09,24,04,52,7.60
2005,09,24,04,53,7.60
2005,09,24,04,54,7.60
2005,09,24,04,55,7.60
2005,09,24,04,56,7.60
2005,09,24,04,57,7.70
2005,09,24,04,58,7.70
2005,09,24,04,59,7.60
2005,09,24,05,00,7.60
2005,09,24,05,01,7.50
2005,09,24,05,02,7.50
2005,09,24,05,03,7.40
2005,09,24,05,04,7.40
2005,09,24,05,05,7.30
2005,09,24,05,06,7.30
2005,09,24,05,07,7.30
2005,09,24,05,08,7.30
2005,09,24,05,09,7.30
2005,09,24,05,10,7.30
2005,09,24,05,11,7.30
2005,09,24,05,12,7.30
2005,09,24,05,13,7.30
2005,09,24,05,14,7.30
2005,09,24,05,15,7.30
2005,09,24,05,16,7.30
2005,09,24,05,17,7.30
2005,09,24,05,18,7.30
2005,09,24,05,19,7.30
2005,09,24,05,20,7.30
2005,09,24,05,21,7.30
2005,09,24,05,22,7.30
2005,09,24,05,23,7.30
2005,09,24,05,24,7.20
2005,09,24,05,25,7.20
2005,09,24,05,26,7.10
2005,09,24,05,27,7.10
2005,09,24,05,28,7.10
2005,09,24,05,29,7.20
2005,09,24,05,30,7.30
2005,09,24,05,31,7.30
2005,09,24,05,32,7.30
2005,09,24,05,33,7.30
2005,09,24,05,34,7.30
2005,09,24,05,35,7.30
2005,09,24,05,36,7.30
2005,09,24,05,37,7.30
2005,09,24,05,38,7.30
2005,09,24,05,39,7.30
2005,09,24,05,40,7.30
2005,09,24,05,41,7.30
2005,09,24,05,42,7.30
2005,09,24,05,43,7.30
2005,09,24,05,44,7.20
2005,09,24,05,45,7.20
2005,09,24,05,46,7.30
2005,09,24,05,47,7.30
2005,09,24,05,48,7.30
2005,09,24,05,49,7.30
2005,09,24,05,50,7.30
2005,09,24,05,51,7.30
2005,09,24,05,52,7.30
2005,09,24,05,53,7.30
2005,09,24,05,54,7.20
2005,09,24,05,55,7.20
2005,09,24,05,56,7.10
2005,09,24,05,57,7.10
2005,09,24,05,58,7.10
2005,09,24,05,59,7.10
2005,09,24,06,00,7.10
2005,09,24,06,01,7.10
2005,09,24,06,02,7.10
2005,09,24,06,03,7.20
2005,09,24,06,04,7.20
2005,09,24,06,05,7.20
2005,09,24,06,06,7.20
2005,09,24,06,07,7.20
2005,09,24,06,08,7.20
2005,09,24,06,09,7.20
2005,09,24,06,10,7.20
2005,09,24,06,11,7.10
2005,09,24,06,12,7.00
2005,09,24,06,13,7.00
2005,09,24,06,14,7.10
2005,09,24,06,15,7.10
2005,09,24,06,16,7.10
2005,09,24,06,17,7.10
2005,09,24,06,18,7.10
2005,09,24,06,19,7.10
2005,09,24,06,20,7.10
2005,09,24,06,21,7.00
2005,09,24,06,22,6.90
2005,09,24,06,23,6.90
2005,09,24,06,24,6.90
2005,09,24,06,25,6.90
2005,09,24,06,26,6.90
2005,09,24,06,27,6.90
2005,09,24,06,28,6.90
2005,09,24,06,29,6.90
2005,09,24,06,30,6.80
2005,09,24,06,31,6.80
2005,09,24,06,32,6.70
2005,09,24,06,33,6.70
2005,09,24,06,34,6.70
2005,09,24,06,35,6.70
2005,09,24,06,36,6.70
2005,09,24,06,37,6.70
2005,09,24,06,38,6.70
2005,09,24,06,39,6.60
2005,09,24,06,40,6.60
2005,09,24,06,41,6.60
2005,09,24,06,42,6.70
2005,09,24,06,43,6.70
2005,09,24,06,44,6.70
2005,09,24,06,45,6.80
2005,09,24,06,46,6.80
2005,09,24,06,47,6.90
2005,09,24,06,48,6.90
2005,09,24,06,49,6.90
2005,09,24,06,50,6.90
2005,09,24,06,51,7.00
2005,09,24,06,52,7.00
2005,09,24,06,53,7.10
2005,09,24,06,54,7.10
2005,09,24,06,55,7.20
2005,09,24,06,56,7.30
2005,09,24,06,57,7.40
2005,09,24,06,58,7.50
2005,09,24,06,59,7.60
2005,09,24,07,00,7.80
2005,09,24,07,01,7.80
2005,09,24,07,02,7.80
2005,09,24,07,03,7.90
2005,09,24,07,04,7.90
2005,09,24,07,05,7.90
2005,09,24,07,06,7.90
2005,09,24,07,07,7.80
2005,09,24,07,08,7.80
2005,09,24,07,09,7.80
2005,09,24,07,10,7.80
2005,09,24,07,11,7.80
2005,09,24,07,12,7.70
2005,09,24,07,13,7.60
2005,09,24,07,14,7.50
2005,09,24,07,15,7.50
2005,09,24,07,16,7.50
2005,09,24,07,17,7.60
2005,09,24,07,18,7.60
2005,09,24,07,19,7.60
2005,09,24,07,20,7.60
2005,09,24,07,21,7.60
2005,09,24,07,22,7.60
2005,09,24,07,23,7.70
2005,09,24,07,24,7.80
2005,09,24,07,25,7.80
2005,09,24,07,26,7.90
2005,09,24,07,27,8.00
2005,09,24,07,28,8.20
2005,09,24,07,29,8.20
2005,09,24,07,30,8.40
2005,09,24,07,31,8.40
2005,09,24,07,32,8.50
2005,09,24,07,33,8.60
2005,09,24,07,34,8.70
2005,09,24,07,35,8.80
2005,09,24,07,36,9.00
2005,09,24,07,37,9.00
2005,09,24,07,38,9.10
2005,09,24,07,39,9.20
2005,09,24,07,40,9.20
2005,09,24,07,41,9.30
2005,09,24,07,42,9.40
2005,09,24,07,43,9.40
2005,09,24,07,44,9.50
2005,09,24,07,45,9.50
2005,09,24,07,46,9.60
2005,09,24,07,47,9.70
2005,09,24,07,48,9.70
2005,09,24,07,49,9.80
2005,09,24,07,50,9.80
2005,09,24,07,51,9.80
2005,09,24,07,52,9.90
2005,09,24,07,53,10.00
2005,09,24,07,54,10.10
2005,09,24,07,55,10.10
2005,09,24,07,56,10.20
2005,09,24,07,57,10.20
2005,09,24,07,58,10.30
2005,09,24,07,59,10.40
2005,09,24,08,00,10.40
2005,09,24,08,01,10.60
2005,09,24,08,02,10.60
2005,09,24,08,03,10.70
2005,09,24,08,04,10.70
2005,09,24,08,05,10.80
2005,09,24,08,06,10.90
2005,09,24,08,07,11.10
2005,09,24,08,08,11.10
2005,09,24,08,09,11.10
2005,09,24,08,10,11.10
2005,09,24,08,11,11.20
2005,09,24,08,12,11.20
2005,09,24,08,13,11.30
2005,09,24,08,14,11.30
2005,09,24,08,15,11.30
2005,09,24,08,16,11.20
2005,09,24,08,17,11.20
2005,09,24,08,18,11.20
2005,09,24,08,19,11.20
2005,09,24,08,20,11.20
2005,09,24,08,21,11.20
2005,09,24,08,22,11.10
2005,09,24,08,23,11.10
2005,09,24,08,24,11.20
2005,09,24,08,25,11.20
2005,09,24,08,26,11.20
2005,09,24,08,27,11.20
2005,09,24,08,28,11.20
2005,09,24,08,29,11.20
2005,09,24,08,30,11.20
2005,09,24,08,31,11.10
2005,09,24,08,32,11.20
2005,09,24,08,33,11.20
2005,09,24,08,34,11.20
2005,09,24,08,35,11.20
2005,09,24,08,36,11.20
2005,09,24,08,37,11.20
2005,09,24,08,38,11.20
2005,09,24,08,39,11.30
2005,09,24,08,40,11.30
2005,09,24,08,41,11.30
2005,09,24,08,42,11.30
2005,09,24,08,43,11.40
2005,09,24,08,44,11.40
2005,09,24,08,45,11.50
2005,09,24,08,46,11.60
2005,09,24,08,47,11.60
2005,09,24,08,48,11.60
2005,09,24,08,49,11.60
2005,09,24,08,50,11.70
2005,09,24,08,51,11.80
2005,09,24,08,52,11.90
2005,09,24,08,53,12.00
2005,09,24,08,54,12.00
2005,09,24,08,55,12.10
2005,09,24,08,56,12.20
2005,09,24,08,57,12.30
2005,09,24,08,58,12.30
2005,09,24,08,59,12.30
2005,09,24,09,00,12.30
2005,09,24,09,01,12.30
2005,09,24,09,02,12.30
2005,09,24,09,03,12.30
2005,09,24,09,04,12.30
2005,09,24,09,05,12.30
2005,09,24,09,06,12.40
2005,09,24,09,07,12.40
2005,09,24,09,08,12.40
2005,09,24,09,09,12.50
2005,09,24,09,10,12.50
2005,09,24,09,11,12.60
2005,09,24,09,12,12.70
2005,09,24,09,13,12.80
2005,09,24,09,14,12.80
2005,09,24,09,15,12.90
2005,09,24,09,16,12.90
2005,09,24,09,17,12.90
2005,09,24,09,18,12.90
2005,09,24,09,19,13.00
2005,09,24,09,20,13.00
2005,09,24,09,21,13.00
2005,09,24,09,22,13.00
2005,09,24,09,23,12.90
2005,09,24,09,24,12.90
2005,09,24,09,25,12.90
2005,09,24,09,26,12.90
2005,09,24,09,27,12.90
2005,09,24,09,28,12.90
2005,09,24,09,29,12.90
2005,09,24,09,30,12.90
2005,09,24,09,31,12.90
2005,09,24,09,32,12.80
2005,09,24,09,33,12.80
2005,09,24,09,34,12.80
2005,09,24,09,35,12.90
2005,09,24,09,36,12.90
2005,09,24,09,37,13.00
2005,09,24,09,38,13.00
2005,09,24,09,39,13.00
2005,09,24,09,40,12.90
2005,09,24,09,41,12.90
2005,09,24,09,42,12.80
2005,09,24,09,43,12.80
2005,09,24,09,44,12.80
2005,09,24,09,45,12.80
2005,09,24,09,46,12.80
2005,09,24,09,47,12.80
2005,09,24,09,48,12.80
2005,09,24,09,49,12.90
2005,09,24,09,50,12.90
2005,09,24,09,51,13.00
2005,09,24,09,52,13.00
2005,09,24,09,53,13.00
2005,09,24,09,54,13.00
2005,09,24,09,55,13.00
2005,09,24,09,56,13.00
2005,09,24,09,57,13.00
2005,09,24,09,58,13.00
2005,09,24,09,59,13.00
2005,09,24,10,00,13.10
2005,09,24,10,01,13.10
2005,09,24,10,02,13.20
2005,09,24,10,03,13.20
2005,09,24,10,04,13.30
2005,09,24,10,05,13.30
2005,09,24,10,06,13.30
2005,09,24,10,07,13.30
2005,09,24,10,08,13.30
2005,09,24,10,09,13.30
2005,09,24,10,10,13.30
2005,09,24,10,11,13.40
2005,09,24,10,12,13.40
2005,09,24,10,13,13.40
2005,09,24,10,14,13.50
2005,09,24,10,15,13.50
2005,09,24,10,16,13.50
2005,09,24,10,17,13.50
2005,09,24,10,18,13.40
2005,09,24,10,19,13.30
2005,09,24,10,20,13.30
2005,09,24,10,21,13.30
2005,09,24,10,22,13.30
2005,09,24,10,23,13.30
2005,09,24,10,24,13.30
2005,09,24,10,25,13.40
2005,09,24,10,26,13.40
2005,09,24,10,27,13.50
2005,09,24,10,28,13.60
2005,09,24,10,29,13.60
2005,09,24,10,30,13.60
2005,09,24,10,31,13.60
2005,09,24,10,32,13.70
2005,09,24,10,33,13.70
2005,09,24,10,34,13.70
2005,09,24,10,35,13.70
2005,09,24,10,36,13.70
2005,09,24,10,37,13.70
2005,09,24,10,38,13.70
2005,09,24,10,39,13.70
2005,09,24,10,40,13.70
2005,09,24,10,41,13.70
2005,09,24,10,42,13.70
2005,09,24,10,43,13.70
2005,09,24,10,44,13.70
2005,09,24,10,45,13.60
2005,09,24,10,46,13.70
2005,09,24,10,47,13.70
2005,09,24,10,48,13.70
2005,09,24,10,49,13.80
2005,09,24,10,50,13.90
2005,09,24,10,51,14.10
2005,09,24,10,52,14.20
2005,09,24,10,53,14.20
2005,09,24,10,54,14.20
2005,09,24,10,55,14.20
2005,09,24,10,56,14.20
2005,09,24,10,57,14.20
2005,09,24,10,58,14.10
2005,09,24,10,59,14.20
2005,09,24,11,00,14.20
2005,09,24,11,01,14.20
2005,09,24,11,02,14.20
2005,09,24,11,03,14.20
2005,09,24,11,04,14.20
2005,09,24,11,05,14.20
2005,09,24,11,06,14.20
2005,09,24,11,07,14.20
2005,09,24,11,08,14.20
2005,09,24,11,09,14.20
2005,09,24,11,10,14.20
2005,09,24,11,11,14.20
2005,09,24,11,12,14.20
2005,09,24,11,13,14.30
2005,09,24,11,14,14.30
2005,09,24,11,15,14.40
2005,09,24,11,16,14.40
2005,09,24,11,17,14.50
2005,09,24,11,18,14.50
2005,09,24,11,19,14.60
2005,09,24,11,20,14.70
2005,09,24,11,21,14.80
2005,09,24,11,22,14.80
2005,09,24,11,23,14.80
2005,09,24,11,24,14.70
2005,09,24,11,25,14.70
2005,09,24,11,26,14.80
2005,09,24,11,27,14.80
2005,09,24,11,28,14.90
2005,09,24,11,29,14.90
2005,09,24,11,30,14.90
2005,09,24,11,31,14.90
2005,09,24,11,32,14.90
2005,09,24,11,33,15.00
2005,09,24,11,34,14.90
2005,09,24,11,35,14.80
2005,09,24,11,36,14.70
2005,09,24,11,37,14.80
2005,09,24,11,38,14.80
2005,09,24,11,39,14.80
2005,09,24,11,40,14.80
2005,09,24,11,41,14.80
2005,09,24,11,42,14.80
2005,09,24,11,43,14.80
2005,09,24,11,44,14.80
2005,09,24,11,45,14.80
2005,09,24,11,46,14.80
2005,09,24,11,47,14.80
2005,09,24,11,48,14.80
2005,09,24,11,49,14.90
2005,09,24,11,50,15.00
2005,09,24,11,51,14.90
2005,09,24,11,52,14.90
2005,09,24,11,53,14.90
2005,09,24,11,54,14.90
2005,09,24,11,55,14.90
2005,09,24,11,56,14.90
2005,09,24,11,57,14.90
2005,09,24,11,58,14.90
2005,09,24,11,59,15.00
2005,09,24,12,00,15.10
2005,09,24,12,01,15.20
2005,09,24,12,02,15.20
2005,09,24,12,03,15.30
2005,09,24,12,04,15.40
2005,09,24,12,05,15.40
2005,09,24,12,06,15.40
2005,09,24,12,07,15.40
2005,09,24,12,08,15.50
2005,09,24,12,09,15.50
2005,09,24,12,10,15.50
2005,09,24,12,11,15.40
2005,09,24,12,12,15.30
2005,09,24,12,13,15.30
2005,09,24,12,14,15.40
2005,09,24,12,15,15.40
2005,09,24,12,16,15.50
2005,09,24,12,17,15.50
2005,09,24,12,18,15.50
2005,09,24,12,19,15.60
2005,09,24,12,20,15.60
2005,09,24,12,21,15.60
2005,09,24,12,22,15.60
2005,09,24,12,23,15.50
2005,09,24,12,24,15.50
2005,09,24,12,25,15.60
2005,09,24,12,26,15.60
2005,09,24,12,27,15.70
2005,09,24,12,28,15.60
2005,09,24,12,29,15.60
2005,09,24,12,30,15.70
2005,09,24,12,31,15.70
2005,09,24,12,32,15.70
2005,09,24,12,33,15.70
2005,09,24,12,34,15.90
2005,09,24,12,35,16.00
2005,09,24,12,36,16.10
2005,09,24,12,37,16.10
2005,09,24,12,38,16.20
2005,09,24,12,39,16.20
2005,09,24,12,40,16.30
2005,09,24,12,41,16.40
2005,09,24,12,42,16.40
2005,09,24,12,43,16.40
2005,09,24,12,44,16.30
2005,09,24,12,45,16.40
2005,09,24,12,46,16.30
2005,09,24,12,47,16.30
2005,09,24,12,48,16.30
2005,09,24,12,49,16.30
2005,09,24,12,50,16.30
2005,09,24,12,51,16.40
2005,09,24,12,52,16.40
2005,09,24,12,53,16.40
2005,09,24,12,54,16.40
2005,09,24,12,55,16.30
2005,09,24,12,56,16.20
2005,09,24,12,57,16.20
2005,09,24,12,58,16.20
2005,09,24,12,59,16.20
2005,09,24,13,00,16.20
2005,09,24,13,01,16.10
2005,09,24,13,02,16.10
2005,09,24,13,03,16.10
2005,09,24,13,04,16.10
2005,09,24,13,05,16.10
2005,09,24,13,06,16.10
2005,09,24,13,07,16.20
2005,09,24,13,08,16.20
2005,09,24,13,09,16.30
2005,09,24,13,10,16.40
2005,09,24,13,11,16.30
2005,09,24,13,12,16.40
2005,09,24,13,13,16.30
2005,09,24,13,14,16.20
2005,09,24,13,15,16.10
2005,09,24,13,16,16.10
2005,09,24,13,17,16.10
2005,09,24,13,18,16.10
2005,09,24,13,19,16.20
2005,09,24,13,20,16.20
2005,09,24,13,21,16.30
2005,09,24,13,22,16.40
2005,09,24,13,23,16.30
2005,09,24,13,24,16.30
2005,09,24,13,25,16.30
2005,09,24,13,26,16.10
2005,09,24,13,27,16.10
2005,09,24,13,28,16.00
2005,09,24,13,29,16.00
2005,09,24,13,30,16.00
2005,09,24,13,31,16.00
2005,09,24,13,32,16.10
2005,09,24,13,33,16.10
2005,09,24,13,34,16.10
2005,09,24,13,35,16.20
2005,09,24,13,36,16.30
2005,09,24,13,37,16.30
2005,09,24,13,38,16.20
2005,09,24,13,39,16.20
2005,09,24,13,40,16.20
2005,09,24,13,41,16.20
2005,09,24,13,42,16.10
2005,09,24,13,43,16.10
2005,09,24,13,44,16.10
2005,09,24,13,45,16.00
2005,09,24,13,46,16.10
2005,09,24,13,47,16.10
2005,09,24,13,48,16.40
2005,09,24,13,49,16.60
2005,09,24,13,50,16.70
2005,09,24,13,51,16.70
2005,09,24,13,52,16.80
2005,09,24,13,53,16.70
2005,09,24,13,54,16.80
2005,09,24,13,55,16.80
2005,09,24,13,56,16.80
2005,09,24,13,57,16.80
2005,09,24,13,58,16.90
2005,09,24,13,59,17.00
2005,09,24,14,00,16.90
2005,09,24,14,01,16.90
2005,09,24,14,02,16.90
2005,09,24,14,03,16.90
2005,09,24,14,04,16.80
2005,09,24,14,05,16.70
2005,09,24,14,06,16.50
2005,09,24,14,07,16.40
2005,09,24,14,08,16.30
2005,09,24,14,09,16.30
2005,09,24,14,10,16.20
2005,09,24,14,11,16.20
2005,09,24,14,12,16.20
2005,09,24,14,13,16.10
2005,09,24,14,14,16.00
2005,09,24,14,15,15.90
2005,09,24,14,16,15.80
2005,09,24,14,17,15.70
2005,09,24,14,18,15.80
2005,09,24,14,19,15.90
2005,09,24,14,20,16.10
2005,09,24,14,21,16.20
2005,09,24,14,22,16.10
2005,09,24,14,23,16.10
2005,09,24,14,24,16.10
2005,09,24,14,25,16.10
2005,09,24,14,26,16.20
2005,09,24,14,27,16.40
2005,09,24,14,28,16.60
2005,09,24,14,29,16.80
2005,09,24,14,30,16.80
2005,09,24,14,31,16.80
2005,09,24,14,32,16.70
2005,09,24,14,33,16.70
2005,09,24,14,34,16.70
2005,09,24,14,35,16.70
2005,09,24,14,36,16.60
2005,09,24,14,37,16.50
2005,09,24,14,38,16.60
2005,09,24,14,39,16.80
2005,09,24,14,40,17.00
2005,09,24,14,41,17.30
2005,09,24,14,42,17.40
2005,09,24,14,43,17.60
2005,09,24,14,44,17.80
2005,09,24,14,45,17.90
2005,09,24,14,46,17.90
2005,09,24,14,47,17.90
2005,09,24,14,48,17.80
2005,09,24,14,49,17.60
2005,09,24,14,50,17.40
2005,09,24,14,51,17.20
2005,09,24,14,52,16.90
2005,09,24,14,53,16.80
2005,09,24,14,54,16.70
2005,09,24,14,55,16.70
2005,09,24,14,56,16.70
2005,09,24,14,57,16.70
2005,09,24,14,58,16.70
2005,09,24,14,59,16.70
2005,09,24,15,00,16.60
2005,09,24,15,01,16.50
2005,09,24,15,02,16.40
2005,09,24,15,03,16.40
2005,09,24,15,04,16.40
2005,09,24,15,05,16.60
2005,09,24,15,06,16.60
2005,09,24,15,07,16.60
2005,09,24,15,08,16.60
2005,09,24,15,09,16.60
2005,09,24,15,10,16.70
2005,09,24,15,11,16.70
2005,09,24,15,12,16.80
2005,09,24,15,13,16.90
2005,09,24,15,14,17.10
2005,09,24,15,15,17.20
2005,09,24,15,16,17.20
2005,09,24,15,17,17.30
2005,09,24,15,18,17.50
2005,09,24,15,19,17.70
2005,09,24,15,20,17.90
2005,09,24,15,21,18.20
2005,09,24,15,22,18.40
2005,09,24,15,23,18.60
2005,09,24,15,24,18.80
2005,09,24,15,25,19.10
2005,09,24,15,26,19.10
2005,09,24,15,27,19.10
2005,09,24,15,28,19.20
2005,09,24,15,29,19.30
2005,09,24,15,30,19.30
2005,09,24,15,31,19.20
2005,09,24,15,32,19.20
2005,09,24,15,33,19.20
2005,09,24,15,34,19.20
2005,09,24,15,35,19.30
2005,09,24,15,36,19.20
2005,09,24,15,37,19.30
2005,09,24,15,38,19.70
2005,09,24,15,39,19.90
2005,09,24,15,40,19.80
2005,09,24,15,41,19.70
2005,09,24,15,42,19.40
2005,09,24,15,43,19.10
2005,09,24,15,44,18.90
2005,09,24,15,45,18.90
2005,09,24,15,46,19.00
2005,09,24,15,47,19.00
2005,09,24,15,48,18.90
2005,09,24,15,49,18.90
2005,09,24,15,50,18.90
2005,09,24,15,51,19.00
2005,09,24,15,52,19.10
2005,09,24,15,53,19.10
2005,09,24,15,54,19.10
2005,09,24,15,55,19.10
2005,09,24,15,56,19.20
2005,09,24,15,57,19.20
2005,09,24,15,58,19.20
2005,09,24,15,59,19.20
2005,09,24,16,00,19.30
2005,09,24,16,01,19.40
2005,09,24,16,02,19.40
2005,09,24,16,03,19.40
2005,09,24,16,04,19.40
2005,09,24,16,05,19.40
2005,09,24,16,06,19.40
2005,09,24,16,07,19.10
2005,09,24,16,08,18.80
2005,09,24,16,09,18.80
2005,09,24,16,10,18.70
2005,09,24,16,11,18.50
2005,09,24,16,12,18.30
2005,09,24,16,13,18.10
2005,09,24,16,14,17.90
2005,09,24,16,15,17.80
2005,09,24,16,16,17.70
2005,09,24,16,17,17.60
2005,09,24,16,18,17.70
2005,09,24,16,19,17.70
2005,09,24,16,20,17.70
2005,09,24,16,21,17.60
2005,09,24,16,22,17.50
2005,09,24,16,23,17.70
2005,09,24,16,24,17.70
2005,09,24,16,25,17.70
2005,09,24,16,26,17.80
2005,09,24,16,27,17.70
2005,09,24,16,28,17.70
2005,09,24,16,29,17.70
2005,09,24,16,30,17.70
2005,09,24,16,31,17.70
2005,09,24,16,32,17.70
2005,09,24,16,33,17.70
2005,09,24,16,34,17.70
2005,09,24,16,35,17.70
2005,09,24,16,36,17.70
2005,09,24,16,37,17.80
2005,09,24,16,38,17.90
2005,09,24,16,39,17.90
2005,09,24,16,40,17.80
2005,09,24,16,41,17.60
2005,09,24,16,42,17.50
2005,09,24,16,43,17.40
2005,09,24,16,44,17.30
2005,09,24,16,45,17.30
2005,09,24,16,46,17.30
2005,09,24,16,47,17.30
2005,09,24,16,48,17.30
2005,09,24,16,49,17.30
2005,09,24,16,50,17.30
2005,09,24,16,51,17.20
2005,09,24,16,52,17.20
2005,09,24,16,53,17.20
2005,09,24,16,54,17.20
2005,09,24,16,55,17.30
2005,09,24,16,56,17.30
2005,09,24,16,57,17.30
2005,09,24,16,58,17.30
2005,09,24,16,59,17.30
2005,09,24,17,00,17.30
2005,09,24,17,01,17.30
2005,09,24,17,02,17.30
2005,09,24,17,03,17.30
2005,09,24,17,04,17.30
2005,09,24,17,05,17.30
2005,09,24,17,06,17.30
2005,09,24,17,07,17.30
2005,09,24,17,08,17.30
2005,09,24,17,09,17.30
2005,09,24,17,10,17.30
2005,09,24,17,11,17.30
2005,09,24,17,12,17.30
2005,09,24,17,13,17.40
2005,09,24,17,14,17.30
2005,09,24,17,15,17.30
2005,09,24,17,16,17.20
2005,09,24,17,17,17.10
2005,09,24,17,18,17.10
2005,09,24,17,19,17.10
2005,09,24,17,20,17.10
2005,09,24,17,21,17.10
2005,09,24,17,22,17.10
2005,09,24,17,23,17.00
2005,09,24,17,24,17.00
2005,09,24,17,25,17.00
2005,09,24,17,26,17.00
2005,09,24,17,27,17.00
2005,09,24,17,28,17.10
2005,09,24,17,29,17.10
2005,09,24,17,30,17.10
2005,09,24,17,31,17.10
2005,09,24,17,32,17.10
2005,09,24,17,33,17.10
2005,09,24,17,34,17.10
2005,09,24,17,35,17.00
2005,09,24,17,36,17.00
2005,09,24,17,37,16.90
2005,09,24,17,38,16.90
2005,09,24,17,39,16.90